Tracking 23726 objects as of 24-Sep-2021
HD Live streaming from Space Station
objects crossing your sky now

GALS 2

Track GALS 2 now!
GALS 2 is classified as:


NORAD ID: 23717
Int'l Code: 1995-063A
Perigee: 35,882.8 km
Apogee: 35,926.5 km
Inclination: 13.9 °
Period: 1,441.8 minutes
Semi major axis: 42275 km
RCS: 8.9125 m2 (large)
Launch date: November 17, 1995
Source: Commonwealth of Independent States (former USSR) (CIS)
Launch site: TYURATAM MISSILE AND SPACE COMPLEX (TTMTR)
aabbcc
Your satellite tracking list
Your tracking list is empty




NASA's NSSDC Master Catalog

Two Line Element Set (TLE):
1 23717U 95063A   21266.40526962 -.00000016  00000-0  00000-0 0  9992
2 23717  13.9194  15.4803 0005167 331.8758  48.1408  0.99877554 94376
Source of the keplerian elements: AFSPC